This demonstration page uses our WeatherBlox Daily Observations layout. Learn more.

Left ArrowRight Arrow

38.20091, -84.87328

Hourly Observations for April 25, 2016

Temp ( °F °C ) Dew Point ( °F °C ) Humidity (%) Winds ( mph kmh ) Pressure ( in mb ) Visibility ( mi km ) Precip ( " mm )
12:53 am 00:53 Clear 56 13.3 48 8.9 75 75 Calm 29.93 1014 10 16 0.00 0.00
1:53 am 01:53 Clear 56 13.3 48 8.9 75 75 Calm 29.92 1013 10 16 0.00 0.00
2:53 am 02:53 Clear 55 12.8 48 8.9 77 77 Calm 29.91 1013 10 16 0.00 0.00
3:53 am 03:53 Clear 52 11.1 47 8.3 83 83 SE 3 6 29.92 1013 10 16 0.00 0.00
4:53 am 04:53 Clear 52 11.1 46 7.8 80 80 Calm 29.93 1013 10 16 0.00 0.00
5:53 am 05:53 Clear 55 12.8 47 8.3 74 74 Calm 29.93 1014 10 16 0.00 0.00
6:53 am 06:53 Mostly Sunny 54 12.2 47 8.3 77 77 S 3 6 29.94 1014 10 16 0.00 0.00
7:53 am 07:53 Mostly Cloudy 61 16.1 51 10.6 70 70 S 7 11 29.94 1014 10 16 0.00 0.00
8:53 am 08:53 Mostly Cloudy 65 18.3 53 11.7 66 66 S 6 9 29.95 1014 10 16 0.00 0.00
9:53 am 09:53 Mostly Sunny 69 20.6 55 12.8 61 61 SSW 7 11 29.95 1014 10 16 0.00 0.00
10:53 am 10:53 Partly Cloudy 75 23.9 54 12.2 48 48 SW 13 20 29.94 1014 10 16 0.00 0.00
11:53 am 11:53 Mostly Sunny 79 26.1 54 12.2 42 42 SW 14 22 29.92 1013 10 16 0.00 0.00
12:53 pm 12:53 Mostly Cloudy 78 25.6 52 11.1 40 40 WSW 13 20 29.91 1013 10 16 0.00 0.00
1:53 pm 13:53 Mostly Cloudy 79 26.1 50 10 36 36 WSW 12 19 29.89 1012 10 16 0.00 0.00
2:53 pm 14:53 Partly Cloudy 80 26.7 49 9.4 34 34 SW 13 20 29.87 1011 10 16 0.00 0.00
3:53 pm 15:53 Mostly Cloudy 81 27.2 51 10.6 35 35 SW 12 19 29.85 1011 10 16 0.00 0.00
4:53 pm 16:53 Mostly Sunny 81 27.2 51 10.6 35 35 SSW 17 28 29.83 1010 10 16 0.00 0.00
5:53 pm 17:53 Partly Cloudy 80 26.7 49 9.4 34 34 SSW 15 24 29.81 1010 10 16 0.00 0.00
6:53 pm 18:53 Mostly Sunny 78 25.6 50 10 37 37 SW 8 13 29.81 1010 10 16 0.00 0.00
7:53 pm 19:53 Mostly Sunny 77 25 49 9.4 37 37 SW 10 17 29.80 1009 10 16 0.00 0.00
8:53 pm 20:53 Clear 73 22.8 50 10 44 44 S 6 9 29.80 1009 10 16 0.00 0.00
9:53 pm 21:53 Clear 68 20 50 10 53 53 S 6 9 29.81 1010 10 16 0.00 0.00
10:53 pm 22:53 Clear 70 21.1 50 10 49 49 SSW 6 9 29.81 1010 10 16 0.00 0.00
11:53 pm 23:53 Clear 70 21.1 50 10 49 49 SSW 10 17 29.80 1009 10 16 0.00 0.00

Powered by AerisWeather